Regional Weather Roundup
Issued by NWS

Home | Current Version | Previous Version | Graphics & Text | Print | Product List | Glossary On
Versions: 1 2 3 4 5 6 7 8 9 10 11 12 13 14 15 16 17 18 19 20 21 22 23 24 25 26 27 28 29 30 31 32 33 34 35 36 37 38 39 40 41 42 43 44 45 46 47 48 49 50
000
ASUS43 KIND 280709
RWRIN

WEATHER ROUNDUP FOR INDIANA
NATIONAL WEATHER SERVICE INDIANAPOLIS IN
300 AM EDT SAT MAY 28 2016

NOTE: "FAIR" INDICATES FEW OR NO CLOUDS BELOW 12,000 FEET WITH NO
SIGNIFICANT WEATHER AND/OR OBSTRUCTIONS TO VISIBILITY.

* - STATION DOES NOT REPORT WEATHER SUCH AS PRECIPITATION OR FOG.

+ - STATION NOT QUALITY CONTROLLED BY THE NATIONAL WEATHER SERVICE.
    USE DATA WITH CAUTION...ESPECIALLY DEWPOINT AND RELATIVE
    HUMIDITY OBSERVATIONS.

INZ001>003-010>013-019-020-280800-
NORTHWEST INDIANA

CITY           SKY/WX    TMP DP  RH WIND       PRES   REMARKS
GARY /AIRPORT/ CLOUDY    71  71 100 S6        29.89S
KNOX *+        CLOUDY    68  61  77 SE9       29.92S
LA PORTE +     CLOUDY    70  70 100 SE3       29.93S
MICHIGAN CITY+ CLOUDY    68  68 100 S5        29.91F
MONTICELLO +   CLOUDY    72  61  68 SE5       29.92S
RENSSELAER +   CLOUDY    68  66  94 SE8       29.91S
VALPARAISO     CLOUDY    69  64  84 SE7       29.92S

$$

LMZ046-743>745-280800-
SOUTHERN LAKE MICHIGAN

STATION/POSITION TIME  TEMP    WIND        PRES    WAVE
                       AIR SEA DIR/SP/G            HT
                 (UTC) (F)     (DEG/KT/KT) (MB)    (FT)
BURNS HARBOR     0702   70     160/ 10/ 16 1012.9R
MICHIGAN CITY    0600   70     140/  9/ 13   N/A
5NW MICH CITY    0700   65 58  170/  8/  8   N/A     1

$$

INZ004-005-014>016-021>024-280800-
NORTH CENTRAL INDIANA

CITY           SKY/WX    TMP DP  RH WIND       PRES   REMARKS
GOSHEN         CLOUDY    71  59  65 S5        29.95S
LOGANSPORT +   PTCLDY    72  61  68 SE8       29.94S
PERU/GRISSOM   CLOUDY    73  63  69 S8        29.94S
ROCHESTER +    CLOUDY    75  63  64 SE3       29.94F
SOUTH BEND     CLOUDY    71  64  78 SE7       29.93F
WARSAW +       CLOUDY    72  59  64 S3        29.95S

$$

INZ006>009-017-018-025>027-280800-
NORTHEAST INDIANA

CITY           SKY/WX    TMP DP  RH WIND       PRES   REMARKS
ANGOLA *+        N/A     70  61  73 S5        29.97F
AUBURN +       CLEAR     70  61  73 CALM      29.98F
FORT WAYNE     PTCLDY    70  62  76 SE8       29.98S
HUNTINGTON +   CLEAR     71  63  75 S5        29.97S

$$

INZ028-029-035-036-043>045-051>053-280800-
WEST CENTRAL INDIANA

CITY           SKY/WX    TMP DP  RH WIND       PRES   REMARKS
CRAWFORDSVL +  MOCLDY    71  64  77 S12       29.94R
GREENCASTLE +  CLOUDY    70  66  88 S7        29.95S
LAFAYETTE      CLOUDY    71  62  73 SE5       29.91F
TERRE HAUTE    CLOUDY    73  63  70 S9        29.93R

$$

INZ030>032-037>040-046>048-054>057-064-065-280800-
CENTRAL INDIANA

CITY           SKY/WX    TMP DP  RH WIND       PRES   REMARKS
CP ATTERBURY + CLOUDY    72  63  73 S9        29.98S
FRANKFORT +      N/A     72  54  53 S5        29.96S
INDIANAPOLIS   CLOUDY    73  64  73 S10       29.94S
-EAGLE CREEK   CLOUDY    76  63  64 S7        29.95S
KOKOMO *+      CLOUDY    73  61  64 S10       29.95S
MARION +       CLOUDY    71  63  74 SE8       29.97S
SHELBYVILLE    CLOUDY    76  64  66 S13       29.96F
ZIONSVILLE +   CLOUDY    72  64  74 S6        29.96S

$$

INZ033-034-041-042-049-050-058-059-280800-
EAST CENTRAL INDIANA

CITY           SKY/WX    TMP DP  RH WIND       PRES   REMARKS
MUNCIE         CLEAR     74  63  68 S6        29.98F

$$

INZ060-061-067>069-081>083-085>088-280800-
SOUTHWEST INDIANA

CITY           SKY/WX    TMP DP  RH WIND       PRES   REMARKS
EVANSVILLE     CLOUDY    75  64  68 SE6       29.96R
HUNTINGBURG *+ CLOUDY    73  64  73 SE10G16   29.97R
WASHINGTON +   CLOUDY    74  67  79 S6        29.95R

$$

INZ062-063-066-070>080-084-089>092-280800-
SOUTH CENTRAL AND SOUTHEAST INDIANA

CITY           SKY/WX    TMP DP  RH WIND       PRES   REMARKS
BLOOMINGTON    CLOUDY    74  64  71 S8        29.96S
MADISON *+     PTCLDY    72  63  73 S7        30.03R
NORTH VERNON + CLOUDY    73  70  88 CALM      29.99F
SEYMOUR +      CLOUDY    73  64  73 S9        29.98S

$$




USA.gov is the U.S. government's official web portal to all federal, state and local government web resources and services.